TimeMST,TemperatureF,Dew PointF,Humidity,Sea Level PressureIn,VisibilityMPH,Wind Direction,Wind SpeedMPH,Gust SpeedMPH,PrecipitationIn,Events,Conditions,WindDirDegrees,DateUTC
12:53 AM,-6.0,-9.9,83,30.63,4.0,Calm,Calm,-,0.00,Snow,Light Snow,0,2014-02-06 07:53:00
1:53 AM,-5.1,-9.9,80,30.61,5.0,Calm,Calm,-,0.00,,Haze,0,2014-02-06 08:53:00
2:09 AM,-5.8,-9.4,84,30.32,2.5,Calm,Calm,-,0.00,Snow,Light Snow,0,2014-02-06 09:09:00
2:19 AM,-5.8,-9.4,84,30.32,1.5,Calm,Calm,-,0.00,Snow,Light Snow,0,2014-02-06 09:19:00
2:33 AM,-5.8,-9.4,84,30.32,2.0,Calm,Calm,-,0.00,Snow,Light Snow,0,2014-02-06 09:33:00
2:53 AM,-4.0,-9.0,79,30.60,2.5,Calm,Calm,-,0.01,Snow,Light Snow,0,2014-02-06 09:53:00
3:34 AM,-5.8,-11.2,77,30.30,4.0,Calm,Calm,-,0.00,Snow,Light Snow,0,2014-02-06 10:34:00
3:53 AM,-5.1,-9.9,80,30.59,5.0,Calm,Calm,-,0.00,,Haze,0,2014-02-06 10:53:00
4:53 AM,-5.1,-11.0,76,30.59,4.0,Calm,Calm,-,0.00,,Haze,0,2014-02-06 11:53:00
5:53 AM,-5.1,-11.0,76,30.60,6.0,NE,3.5,-,N/A,,Haze,40,2014-02-06 12:53:00
6:41 AM,-5.8,-11.2,77,30.28,2.5,NE,3.5,-,0.01,Snow,Light Snow,50,2014-02-06 13:41:00
6:53 AM,-5.1,-11.0,76,30.59,3.0,NE,3.5,-,0.01,Snow,Light Snow,50,2014-02-06 13:53:00
7:34 AM,-5.8,-13.0,71,30.28,2.5,NE,6.9,-,0.00,,Haze,40,2014-02-06 14:34:00
7:48 AM,-7.6,-14.8,71,30.27,4.0,NNE,5.8,-,0.00,,Haze,30,2014-02-06 14:48:00
7:53 AM,-8.0,-14.1,75,30.60,5.0,NE,4.6,-,0.00,,Haze,40,2014-02-06 14:53:00
8:11 AM,-7.6,-14.8,71,30.28,10.0,NNE,6.9,-,N/A,,Scattered Clouds,20,2014-02-06 15:11:00
8:53 AM,-5.1,-14.1,65,30.58,10.0,NNE,4.6,-,N/A,,Overcast,30,2014-02-06 15:53:00
9:53 AM,-2.9,-9.9,72,30.56,7.0,Calm,Calm,-,N/A,,Overcast,0,2014-02-06 16:53:00
10:05 AM,-2.2,-9.4,71,30.26,8.0,Calm,Calm,-,N/A,,Overcast,0,2014-02-06 17:05:00
10:20 AM,-2.2,-11.2,66,30.25,10.0,Calm,Calm,-,N/A,,Overcast,0,2014-02-06 17:20:00
10:53 AM,-2.0,-11.0,66,30.53,10.0,Calm,Calm,-,N/A,,Clear,0,2014-02-06 17:53:00
11:53 AM,-0.9,-11.0,62,30.49,10.0,East,3.5,-,N/A,,Partly Cloudy,100,2014-02-06 18:53:00
12:53 PM,-0.0,-11.0,60,30.45,10.0,Calm,Calm,-,N/A,,Scattered Clouds,0,2014-02-06 19:53:00
1:53 PM,1.9,-9.9,58,30.40,10.0,Calm,Calm,-,N/A,,Overcast,0,2014-02-06 20:53:00
2:53 PM,-0.0,-9.0,66,30.39,5.0,Calm,Calm,-,0.00,Snow,Light Snow,0,2014-02-06 21:53:00
3:17 PM,-0.4,-9.4,66,30.10,2.0,Calm,Calm,-,0.00,Snow,Light Snow,0,2014-02-06 22:17:00
3:28 PM,-0.4,-7.6,72,30.10,1.8,ESE,3.5,-,0.00,Snow,Light Snow,110,2014-02-06 22:28:00
3:53 PM,-0.0,-7.1,72,30.38,2.5,East,3.5,-,0.01,Snow,Light Snow,100,2014-02-06 22:53:00
4:06 PM,-0.4,-7.6,72,30.09,3.0,Calm,Calm,-,0.00,Snow,Light Snow,0,2014-02-06 23:06:00
4:39 PM,-0.4,-7.6,72,30.08,2.0,East,3.5,-,0.00,Snow,Light Snow,90,2014-02-06 23:39:00
4:53 PM,-0.0,-7.1,72,30.36,2.5,Calm,Calm,-,0.00,Snow,Light Snow,0,2014-02-06 23:53:00
5:00 PM,-0.4,-7.6,72,30.08,4.0,East,3.5,-,0.00,Snow,Light Snow,100,2014-02-07 00:00:00
5:53 PM,-0.0,-7.1,72,30.35,10.0,Calm,Calm,-,0.00,,Overcast,0,2014-02-07 00:53:00
6:53 PM,-0.0,-6.0,76,30.34,7.0,East,3.5,-,0.00,,Overcast,90,2014-02-07 01:53:00
7:53 PM,-0.0,-6.0,76,30.33,10.0,ESE,4.6,-,N/A,,Scattered Clouds,110,2014-02-07 02:53:00
8:53 PM,-0.0,-5.1,79,30.32,10.0,ESE,3.5,-,N/A,,Overcast,110,2014-02-07 03:53:00
9:53 PM,1.0,-5.1,75,30.29,7.0,East,4.6,-,0.00,Snow,Light Snow,100,2014-02-07 04:53:00
10:53 PM,1.0,-4.0,79,30.26,10.0,East,5.8,-,0.00,,Overcast,100,2014-02-07 05:53:00
11:53 PM,1.0,-4.0,79,30.24,7.0,East,4.6,-,0.00,Snow,Light Snow,100,2014-02-07 06:53:00